Time,TemperatureF,DewpointF,PressureIn,WindDirection,WindDirectionDegrees,WindSpeedMPH,WindSpeedGustMPH,Humidity,HourlyPrecipIn,Conditions,Clouds,dailyrainin,SoftwareType,DateUTC
2013-03-02 00:11:00,28.5,21.0,28.11,WNW,284,1.0,2.0,73,0.00,,,0.00,weatherlink.com 1.10,2013-03-02 05:11:00,
2013-03-02 00:26:00,28.5,20.0,28.11,SE,138,0.0,2.0,71,0.00,,,0.00,weatherlink.com 1.10,2013-03-02 05:26:00,
2013-03-02 00:41:00,28.6,21.0,28.11,SE,139,1.0,2.0,72,0.00,,,0.00,weatherlink.com 1.10,2013-03-02 05:41:00,
2013-03-02 00:56:00,28.5,20.0,28.11,South,186,0.0,1.0,70,0.00,,,0.00,weatherlink.com 1.10,2013-03-02 05:56:00,
2013-03-02 01:11:00,28.5,20.0,28.11,SE,144,0.0,1.0,70,0.00,,,0.00,weatherlink.com 1.10,2013-03-02 06:11:00,
2013-03-02 01:26:00,28.5,19.0,28.11,East,94,1.0,3.0,68,0.00,,,0.00,weatherlink.com 1.10,2013-03-02 06:26:00,
2013-03-02 01:41:00,28.5,20.0,28.10,WSW,253,0.0,5.0,69,0.00,,,0.00,weatherlink.com 1.10,2013-03-02 06:41:00,
2013-03-02 01:56:00,28.3,19.0,28.10,SE,136,1.0,4.0,68,0.00,,,0.00,weatherlink.com 1.10,2013-03-02 06:56:00,
2013-03-02 02:11:00,28.3,19.0,28.09,West,267,0.0,3.0,69,0.00,,,0.00,weatherlink.com 1.10,2013-03-02 07:11:00,
2013-03-02 02:26:00,28.1,19.0,28.09,SSW,200,0.0,1.0,69,0.00,,,0.00,weatherlink.com 1.10,2013-03-02 07:26:00,
2013-03-02 02:41:00,28.0,20.0,28.08,SW,215,0.0,3.0,71,0.00,,,0.00,weatherlink.com 1.10,2013-03-02 07:41:00,
2013-03-02 02:56:00,28.0,19.0,28.08,South,184,0.0,1.0,70,0.00,,,0.00,weatherlink.com 1.10,2013-03-02 07:56:00,
2013-03-02 03:11:00,27.9,19.0,28.08,SSE,163,0.0,1.0,70,0.00,,,0.00,weatherlink.com 1.10,2013-03-02 08:11:00,
2013-03-02 03:26:00,27.9,19.0,28.08,SE,145,1.0,1.0,70,0.00,,,0.00,weatherlink.com 1.10,2013-03-02 08:26:00,
2013-03-02 03:42:00,27.9,20.0,28.08,SE,138,0.0,3.0,71,0.00,,,0.00,weatherlink.com 1.10,2013-03-02 08:42:00,
2013-03-02 03:57:00,27.8,20.0,28.08,ESE,102,2.0,3.0,72,0.00,,,0.00,weatherlink.com 1.10,2013-03-02 08:57:00,
2013-03-02 04:12:00,27.8,20.0,28.08,SE,138,0.0,3.0,72,0.00,,,0.00,weatherlink.com 1.10,2013-03-02 09:12:00,
2013-03-02 04:27:00,27.7,20.0,28.08,SSE,163,0.0,3.0,72,0.00,,,0.00,weatherlink.com 1.10,2013-03-02 09:27:00,
2013-03-02 04:42:00,27.6,20.0,28.08,SSE,165,0.0,2.0,73,0.00,,,0.00,weatherlink.com 1.10,2013-03-02 09:42:00,
2013-03-02 04:57:00,27.5,20.0,28.08,SW,215,0.0,7.0,73,0.00,,,0.00,weatherlink.com 1.10,2013-03-02 09:57:00,
2013-03-02 05:27:00,27.3,20.0,28.08,SSE,160,0.0,4.0,73,0.00,,,0.00,weatherlink.com 1.10,2013-03-02 10:27:00,
2013-03-02 05:42:00,27.3,19.0,28.08,East,96,1.0,2.0,72,0.00,,,0.00,weatherlink.com 1.10,2013-03-02 10:42:00,
2013-03-02 05:57:00,27.2,19.0,28.08,SSW,212,0.0,4.0,72,0.00,,,0.00,weatherlink.com 1.10,2013-03-02 10:57:00,
2013-03-02 06:12:00,27.1,19.0,28.08,WSW,256,1.0,4.0,72,0.00,,,0.00,weatherlink.com 1.10,2013-03-02 11:12:00,
2013-03-02 06:27:00,27.1,19.0,28.07,SW,233,0.0,3.0,72,0.00,,,0.00,weatherlink.com 1.10,2013-03-02 11:27:00,
2013-03-02 06:42:00,27.1,19.0,28.07,WSW,252,3.0,4.0,72,0.00,,,0.00,weatherlink.com 1.10,2013-03-02 11:42:00,
2013-03-02 06:57:00,27.1,20.0,28.08,WSW,243,0.0,4.0,74,0.00,,,0.00,weatherlink.com 1.10,2013-03-02 11:57:00,
2013-03-02 07:12:00,27.0,20.0,28.08,SW,231,1.0,1.0,74,0.00,,,0.00,weatherlink.com 1.10,2013-03-02 12:12:00,
2013-03-02 07:27:00,27.0,20.0,28.08,WSW,240,1.0,3.0,74,0.00,,,0.00,weatherlink.com 1.10,2013-03-02 12:27:00,
2013-03-02 07:42:00,27.0,20.0,28.09,WSW,253,0.0,2.0,74,0.00,,,0.00,weatherlink.com 1.10,2013-03-02 12:42:00,
2013-03-02 07:57:00,27.1,20.0,28.09,SW,231,0.0,1.0,75,0.00,,,0.00,weatherlink.com 1.10,2013-03-02 12:57:00,
2013-03-02 08:12:00,27.3,20.0,28.09,SSW,197,0.0,1.0,75,0.00,,,0.00,weatherlink.com 1.10,2013-03-02 13:12:00,
2013-03-02 08:27:00,27.4,20.0,28.09,WSW,248,0.0,3.0,73,0.00,,,0.00,weatherlink.com 1.10,2013-03-02 13:27:00,
2013-03-02 08:42:00,27.6,20.0,28.09,WSW,248,0.0,4.0,72,0.00,,,0.00,weatherlink.com 1.10,2013-03-02 13:42:00,
2013-03-02 08:57:00,27.8,20.0,28.09,West,259,1.0,3.0,71,0.00,,,0.00,weatherlink.com 1.10,2013-03-02 13:57:00,
2013-03-02 09:12:00,27.9,19.0,28.09,WSW,250,0.0,2.0,70,0.00,,,0.00,weatherlink.com 1.10,2013-03-02 14:12:00,
2013-03-02 09:27:00,28.2,19.0,28.09,SW,228,0.0,4.0,68,0.00,,,0.00,weatherlink.com 1.10,2013-03-02 14:27:00,
2013-03-02 09:42:00,29.1,19.0,28.09,SSW,203,0.0,1.0,67,0.00,,,0.00,weatherlink.com 1.10,2013-03-02 14:42:00,
2013-03-02 09:57:00,29.3,19.0,28.08,South,190,0.0,9.0,65,0.00,,,0.00,weatherlink.com 1.10,2013-03-02 14:57:00,
2013-03-02 10:12:00,29.8,19.0,28.08,West,264,0.0,6.0,64,0.00,,,0.00,weatherlink.com 1.10,2013-03-02 15:12:00,
2013-03-02 10:27:00,29.6,18.0,28.08,West,264,2.0,5.0,62,0.00,,,0.00,weatherlink.com 1.10,2013-03-02 15:27:00,
2013-03-02 10:42:00,30.1,18.0,28.08,ESE,120,3.0,7.0,60,0.00,,,0.00,weatherlink.com 1.10,2013-03-02 15:42:00,
2013-03-02 10:57:00,30.5,19.0,28.08,SSE,163,0.0,7.0,62,0.00,,,0.00,weatherlink.com 1.10,2013-03-02 15:57:00,
2013-03-02 11:12:00,31.4,19.0,28.07,West,269,3.0,7.0,60,0.00,,,0.00,weatherlink.com 1.10,2013-03-02 16:12:00,
2013-03-02 11:27:00,31.8,18.0,28.07,SW,231,0.0,8.0,57,0.00,,,0.00,weatherlink.com 1.10,2013-03-02 16:27:00,
2013-03-02 11:42:00,32.9,19.0,28.07,East,86,0.0,4.0,56,0.00,,,0.00,weatherlink.com 1.10,2013-03-02 16:42:00,
2013-03-02 11:57:00,32.5,19.0,28.07,SW,236,1.0,6.0,57,0.00,,,0.00,weatherlink.com 1.10,2013-03-02 16:57:00,
2013-03-02 12:12:00,32.5,18.0,28.06,South,169,1.0,8.0,56,0.00,,,0.00,weatherlink.com 1.10,2013-03-02 17:12:00,
2013-03-02 12:27:00,32.3,19.0,28.06,East,84,4.0,7.0,58,0.00,,,0.00,weatherlink.com 1.10,2013-03-02 17:27:00,
2013-03-02 12:42:00,32.4,19.0,28.06,WSW,240,0.0,7.0,59,0.00,,,0.00,weatherlink.com 1.10,2013-03-02 17:42:00,
2013-03-02 12:57:00,31.6,19.0,28.05,SW,233,4.0,11.0,59,0.00,,,0.00,weatherlink.com 1.10,2013-03-02 17:57:00,
2013-03-02 13:12:00,31.4,19.0,28.05,SW,235,0.0,7.0,60,0.00,,,0.00,weatherlink.com 1.10,2013-03-02 18:12:00,
2013-03-02 13:27:00,31.8,19.0,28.05,SW,233,3.0,8.0,60,0.00,,,0.00,weatherlink.com 1.10,2013-03-02 18:27:00,
2013-03-02 13:42:00,31.2,19.0,28.05,SSW,194,0.0,12.0,61,0.00,,,0.00,weatherlink.com 1.10,2013-03-02 18:42:00,
2013-03-02 13:57:00,31.9,19.0,28.05,SSW,212,3.0,6.0,60,0.00,,,0.00,weatherlink.com 1.10,2013-03-02 18:57:00,
2013-03-02 14:12:00,31.4,18.0,28.05,SSW,198,3.0,7.0,59,0.00,,,0.00,weatherlink.com 1.10,2013-03-02 19:12:00,
2013-03-02 14:27:00,31.2,18.0,28.05,SE,132,0.0,11.0,58,0.00,,,0.00,weatherlink.com 1.10,2013-03-02 19:27:00,
2013-03-02 14:42:00,31.7,19.0,28.05,NNW,334,1.0,3.0,59,0.00,,,0.00,weatherlink.com 1.10,2013-03-02 19:42:00,
2013-03-02 14:57:00,31.4,18.0,28.05,SW,214,3.0,7.0,59,0.00,,,0.00,weatherlink.com 1.10,2013-03-02 19:57:00,
2013-03-02 15:12:00,31.2,19.0,28.05,SW,225,0.0,3.0,61,0.00,,,0.00,weatherlink.com 1.10,2013-03-02 20:12:00,
2013-03-02 15:27:00,31.1,19.0,28.05,South,174,0.0,10.0,60,0.00,,,0.00,weatherlink.com 1.10,2013-03-02 20:27:00,
2013-03-02 15:42:00,31.1,18.0,28.05,SW,226,0.0,6.0,58,0.00,,,0.00,weatherlink.com 1.10,2013-03-02 20:42:00,
2013-03-02 15:57:00,31.3,18.0,28.05,WSW,253,0.0,6.0,58,0.00,,,0.00,weatherlink.com 1.10,2013-03-02 20:57:00,
2013-03-02 16:13:00,30.7,19.0,28.05,ESE,103,0.0,7.0,61,0.00,,,0.00,weatherlink.com 1.10,2013-03-02 21:13:00,
2013-03-02 16:28:00,30.7,17.0,28.05,SSE,166,0.0,9.0,57,0.00,,,0.00,weatherlink.com 1.10,2013-03-02 21:28:00,
2013-03-02 16:43:00,30.0,18.0,28.06,SSW,210,0.0,7.0,60,0.00,,,0.00,weatherlink.com 1.10,2013-03-02 21:43:00,
2013-03-02 16:58:00,29.7,18.0,28.06,South,177,2.0,4.0,61,0.00,,,0.00,weatherlink.com 1.10,2013-03-02 21:58:00,
2013-03-02 17:13:00,29.5,17.0,28.06,East,94,0.0,7.0,60,0.00,,,0.00,weatherlink.com 1.10,2013-03-02 22:13:00,
2013-03-02 17:28:00,29.5,17.0,28.06,SW,214,0.0,2.0,60,0.00,,,0.00,weatherlink.com 1.10,2013-03-02 22:28:00,
2013-03-02 17:43:00,29.2,17.0,28.07,WSW,238,2.0,7.0,60,0.00,,,0.00,weatherlink.com 1.10,2013-03-02 22:43:00,
2013-03-02 17:58:00,28.7,17.0,28.07,SW,235,0.0,3.0,62,0.00,,,0.00,weatherlink.com 1.10,2013-03-02 22:58:00,
2013-03-02 18:13:00,28.4,17.0,28.08,SSE,150,0.0,4.0,62,0.00,,,0.00,weatherlink.com 1.10,2013-03-02 23:13:00,
2013-03-02 18:28:00,28.0,17.0,28.08,SSE,152,0.0,5.0,63,0.00,,,0.00,weatherlink.com 1.10,2013-03-02 23:28:00,
2013-03-02 18:43:00,27.5,17.0,28.08,SW,231,1.0,8.0,65,0.00,,,0.00,weatherlink.com 1.10,2013-03-02 23:43:00,
2013-03-02 18:58:00,27.2,16.0,28.09,South,169,0.0,1.0,63,0.00,,,0.00,weatherlink.com 1.10,2013-03-02 23:58:00,
2013-03-02 19:13:00,27.2,17.0,28.08,SSE,160,0.0,2.0,66,0.00,,,0.00,weatherlink.com 1.10,2013-03-03 00:13:00,
2013-03-02 19:28:00,27.3,17.0,28.08,WSW,248,1.0,2.0,65,0.00,,,0.00,weatherlink.com 1.10,2013-03-03 00:28:00,
2013-03-02 19:43:00,27.6,18.0,28.08,SSW,204,0.0,2.0,67,0.00,,,0.00,weatherlink.com 1.10,2013-03-03 00:43:00,
2013-03-02 19:58:00,27.8,18.0,28.08,SW,231,0.0,3.0,68,0.00,,,0.00,weatherlink.com 1.10,2013-03-03 00:58:00,
2013-03-02 20:13:00,27.8,18.0,28.08,SW,219,0.0,3.0,68,0.00,,,0.00,weatherlink.com 1.10,2013-03-03 01:13:00,
2013-03-02 20:28:00,27.9,18.0,28.09,SE,136,1.0,4.0,67,0.00,,,0.00,weatherlink.com 1.10,2013-03-03 01:28:00,
2013-03-02 20:43:00,28.0,19.0,28.09,SW,221,0.0,3.0,68,0.00,,,0.00,weatherlink.com 1.10,2013-03-03 01:43:00,
2013-03-02 20:58:00,27.8,19.0,28.09,WSW,248,0.0,5.0,70,0.00,,,0.00,weatherlink.com 1.10,2013-03-03 01:58:00,
2013-03-02 21:13:00,27.4,18.0,28.10,SSE,166,0.0,5.0,69,0.00,,,0.00,weatherlink.com 1.10,2013-03-03 02:13:00,
2013-03-02 21:28:00,27.0,17.0,28.10,SW,214,0.0,5.0,67,0.00,,,0.00,weatherlink.com 1.10,2013-03-03 02:28:00,
2013-03-02 21:43:00,26.6,17.0,28.10,SW,224,0.0,4.0,67,0.00,,,0.00,weatherlink.com 1.10,2013-03-03 02:43:00,
2013-03-02 21:58:00,26.4,16.0,28.10,SSW,210,0.0,3.0,66,0.00,,,0.00,weatherlink.com 1.10,2013-03-03 02:58:00,
2013-03-02 22:13:00,26.2,17.0,28.10,SW,235,1.0,3.0,67,0.00,,,0.00,weatherlink.com 1.10,2013-03-03 03:13:00,
2013-03-02 22:28:00,26.1,17.0,28.09,SSW,200,0.0,7.0,68,0.00,,,0.00,weatherlink.com 1.10,2013-03-03 03:28:00,
2013-03-02 22:58:00,25.6,17.0,28.09,South,177,0.0,0.0,69,0.00,,,0.00,weatherlink.com 1.10,2013-03-03 03:58:00,
2013-03-02 23:13:00,25.3,17.0,28.09,WNW,287,5.0,5.0,70,0.00,,,0.00,weatherlink.com 1.10,2013-03-03 04:13:00,
2013-03-02 23:28:00,25.6,16.0,28.09,SE,139,5.0,8.0,68,0.00,,,0.00,weatherlink.com 1.10,2013-03-03 04:28:00,
2013-03-02 23:43:00,25.5,16.0,28.09,WSW,250,0.0,2.0,67,0.00,,,0.00,weatherlink.com 1.10,2013-03-03 04:43:00,
2013-03-02 23:58:00,25.6,16.0,28.09,South,177,0.0,5.0,67,0.00,,,0.00,weatherlink.com 1.10,2013-03-03 04:58:00,